カタログに戻る

STARLINK-30081

運用中通信VLEO
NORAD 57515·PAYLOAD·🇺🇸 United States

打ち上げ Aug 7, 2023 から Cape Canaveral Space Force Station

Loading…

次のパス (今後24時間)

TLE

最新Source: CelesTrak SupGP

元期: Sep 15, 2026, 01:39 UTC

1 57515C 23113W   26258.06923611 -.00022767  00000+0 -82448-3 0  2586
2 57515  43.0042  26.2445 0001717 269.1421  34.6197 15.27594514    16

AllMySatでSTARLINK-30081をリアルタイム追跡

Download on the App Store